This is the latest recevied weather packets stored in our database for station/object WP3OF. If no packets are shown the sender has not sent any weather packets the latest 1 day(s).
| Time | Temp. | Humidity | Pressure | Rain* | Wind** | Luminosity | Snow |
|---|---|---|---|---|---|---|---|
| 1778020420 | - | - | - | 0 mm | 4.02 m/s, 303° | - | - |
| 1778020116 | - | - | - | 0 mm | 3.13 m/s, 286° | - | - |
| 1778019812 | - | - | - | 0 mm | 3.58 m/s, 291° | - | - |
| 1778019510 | - | - | - | 0 mm | 2.68 m/s, 277° | - | - |
| 1778019206 | - | - | - | 0 mm | 3.13 m/s, 304° | - | - |
| 1778018903 | - | - | - | 0 mm | 4.02 m/s, 286° | - | - |
| 1778018600 | - | - | - | 0 mm | 3.13 m/s, 304° | - | - |
| 1778018298 | - | - | - | 0 mm | 2.24 m/s, 280° | - | - |
| 1778017996 | - | - | - | 0 mm | 3.13 m/s, 311° | - | - |
| 1778017694 | - | - | - | 0 mm | 3.58 m/s, 309° | - | - |
| 1778017391 | - | - | - | 0 mm | 3.58 m/s, 295° | - | - |
| 1778017088 | - | - | - | 0 mm | 4.02 m/s, 310° | - | - |
| 1778016786 | - | - | - | 0 mm | 3.58 m/s, 316° | - | - |
| 1778016481 | - | - | - | 0 mm | 4.47 m/s, 312° | - | - |
| 1778016179 | - | - | - | 0 mm | 2.68 m/s, 311° | - | - |
| 1778015875 | - | - | - | 0 mm | 4.47 m/s, 299° | - | - |
| 1778015573 | - | - | - | 0 mm | 4.02 m/s, 310° | - | - |
| 1778015269 | - | - | - | 0 mm | 4.92 m/s, 327° | - | - |
| 1778014966 | - | - | - | 0 mm | 3.58 m/s, 321° | - | - |
| 1778014663 | - | - | - | 0 mm | 4.02 m/s, 300° | - | - |
| 1778014361 | - | - | - | 0 mm | 4.02 m/s, 315° | - | - |
| 1778014057 | - | - | - | 0 mm | 3.58 m/s, 326° | - | - |
| 1778013756 | - | - | - | 0 mm | 4.47 m/s, 313° | - | - |
| 1778013452 | - | - | - | 0 mm | 4.47 m/s, 335° | - | - |
| 1778013149 | - | - | - | 0 mm | 4.02 m/s, 302° | - | - |
* Rain latest hour (hover to see other rain measurements)
** Current wind speed in m/s (hover to see current wind gust speed)